Theta_e
316 316 316 315 312 310 308 316 309 321 321 309 310 306 306 299 305 308 306 306 303 301 301 301 301 300 303 305 307 305 308 306 301 302 307 308 309 308 309 303 303 306 305 303
316 316 315 314 312 310 318 314 313 319 317 305 304 306 304 305 304 304 305 304 305 306 302 299 302 302 304 305 305 305 307 303 299 299 303 306 305 308 309 309 309 305 302 304
316 316 315 313 312 311 315 314 308 311 314 312 306 303 302 301 304 303 305 305 307 305 303 306 301 301 303 305 304 305 308 303 302 296 300 304 302 303 306 307 303 305 306 306
316 316 315 314 312 311 315 315 307 311 306 306 306 306 303 300 300 303 305 303 304 304 302 302 302 303 303 304 303 306 306 300 302 302 301 302 302 302 301 303 305 303 310 308
316 316 316 315 313 310 319 313 310 309 308 306 306 300 302 300 300 302 300 301 302 303 303 304 302 304 304 304 305 306 306 301 302 300 300 300 299 301 301 302 304 305 312 307
315 316 316 316 313 312 318 319 315 313 301 304 303 304 302 301 302 303 304 303 303 302 303 307 308 309 308 307 305 303 304 302 300 296 301 299 296 300 302 303 304 306 307 312
315 316 317 317 314 312 323 319 317 310 305 306 303 302 302 301 303 301 302 304 304 306 310 308 307 307 306 305 305 305 301 302 301 296 299 289 300 306 304 303 305 309 315 314
314 316 317 317 315 313 322 323 318 312 307 306 303 302 303 304 303 303 302 305 308 310 307 303 299 299 300 301 302 303 304 302 297 294 294 297 299 302 302 302 303 310 313 313
314 315 316 317 316 314 322 322 325 316 309 306 307 304 304 304 303 303 305 308 312 308 304 300 294 294 297 296 298 303 303 303 299 297 291 290 300 304 307 307 297 310 314 314
313 315 316 316 317 315 318 322 326 318 310 311 309 307 307 309 306 305 306 305 305 308 302 297 297 298 300 296 295 297 297 298 294 295 294 298 305 307 307 295 300 310 312 312
312 314 315 315 316 316 316 321 324 318 312 314 312 310 308 309 307 303 308 305 305 304 299 299 300 299 302 298 300 299 298 297 296 297 294 291 307 305 298 308 312 311 311 312
312 313 314 315 315 315 314 319 323 323 315 315 317 317 316 313 313 309 310 307 307 308 302 305 305 302 302 300 296 303 297 301 300 300 299 308 308 308 312 311 310 310 310 308
311 312 314 315 315 315 314 319 322 320 313 314 313 313 318 319 317 317 307 311 311 311 311 305 303 299 302 297 298 300 303 305 301 301 303 305 306 308 311 310 310 308 308 308
311 311 313 314 314 314 313 320 321 319 314 307 310 319 315 319 319 317 316 315 316 314 309 303 301 299 305 300 301 302 304 305 302 301 304 305 306 308 309 308 308 307 307 307
311 311 312 313 314 313 316 325 325 324 316 307 306 314 317 318 318 316 316 315 313 309 305 301 300 303 303 302 303 301 305 303 301 299 305 305 306 309 310 309 307 307 306 306
310 310 311 312 313 313 320 316 323 324 321 312 301 314 313 316 317 315 314 315 315 314 309 305 304 307 304 300 297 303 306 308 307 305 309 307 309 309 310 309 309 309 307 307
309 309 311 312 312 316 316 313 316 313 322 313 303 303 312 315 312 312 311 312 312 310 301 298 297 298 301 294 295 304 306 308 308 309 308 305 306 305 307 307 308 306 308 308
309 310 311 312 311 311 317 319 317 316 318 315 305 302 305 314 307 309 313 310 307 305 302 303 299 298 297 291 301 305 304 305 306 307 308 307 308 308 307 308 308 306 305 306
310 311 312 316 316 315 318 316 316 324 318 310 309 302 300 312 307 310 307 310 301 306 301 300 300 296 288 299 304 303 306 303 304 306 305 305 306 307 307 307 306 305 305 307
310 314 317 311 317 311 315 318 315 315 314 313 308 311 301 311 305 303 302 303 300 300 300 307 299 299 304 306 307 308 309 309 308 303 303 305 304 305 305 305 307 307 307 307
318 316 314 321 314 319 314 308 308 310 306 310 310 308 307 313 302 300 306 301 299 293 298 298 297 297 302 304 305 308 310 310 310 309 308 309 307 306 304 306 307 308 308 308
315 319 320 322 318 311 304 304 307 305 302 308 307 308 310 310 312 304 306 296 300 291 304 298 294 302 306 305 305 307 306 308 308 308 307 307 307 309 309 309 306 305 307 310
322 317 313 308 310 297 301 297 302 303 307 309 309 306 311 310 308 301 303 294 297 302 299 293 297 306 307 307 307 307 307 307 307 307 307 308 308 309 308 308 308 310 308 309
313 309 297 305 304 306 307 307 307 310 311 310 309 308 307 308 303 302 296 299 302 294 292 294 301 306 308 307 308 307 306 306 304 305 306 307 307 307 308 308 308 307 308 309
310 311 301 307 311 314 313 311 310 310 315 311 308 308 308 303 301 303 300 296 292 295 295 300 306 309 308 307 306 305 305 306 305 304 303 304 304 305 305 307 307 310 310 309
310 311 309 312 311 310 310 309 309 311 311 312 309 304 301 300 302 297 295 293 291 296 301 304 308 309 309 308 307 307 307 305 304 303 303 303 303 303 303 305 306 307 309 307
309 310 314 313 312 311 311 311 312 312 309 306 307 298 297 303 298 295 300 296 299 302 304 307 311 309 310 309 309 307 306 305 304 304 304 303 303 304 304 303 306 307 309 308
Wind_Speed
17 18 19 20 21 27 2 10 7 6 5 11 4 5 3 3 2 0 3 6 2 5 3 5 6 10 9 3 8 8 2 8 11 15 7 5 13 10 14 11 16 14 11 5
17 19 19 19 18 15 8 6 3 5 7 9 5 5 7 7 2 4 1 2 5 5 7 2 2 7 3 1 3 5 2 10 8 6 8 5 12 11 12 15 16 12 17 9
17 18 18 18 17 14 6 5 4 5 1 6 2 5 3 6 1 3 2 0 4 7 7 3 5 7 4 4 4 6 6 14 11 7 9 7 17 7 12 15 13 11 11 20
16 17 18 19 19 14 5 2 5 6 2 5 4 2 1 3 4 2 3 2 5 5 6 6 8 7 8 6 4 4 7 11 5 5 3 8 3 6 7 14 16 17 17 16
15 17 18 19 21 21 6 5 3 4 4 1 6 4 3 4 5 3 3 2 5 5 7 1 7 8 7 5 4 3 5 8 5 10 6 7 8 10 8 9 8 6 18 16
15 15 16 19 24 18 3 1 2 6 7 4 9 7 4 5 5 5 5 2 5 5 7 8 10 8 5 5 7 5 7 9 7 13 11 8 14 14 12 11 10 11 14 13
14 14 15 17 20 16 10 5 6 5 3 3 7 3 3 5 3 3 4 1 3 6 4 3 4 3 1 2 2 6 6 8 8 12 7 13 2 9 7 12 8 3 15 22
11 12 13 15 18 20 8 4 5 5 3 6 5 4 5 6 6 4 3 6 6 5 4 6 6 6 6 9 5 6 5 8 7 11 9 4 7 5 5 8 8 6 15 13
10 11 12 13 15 18 10 6 5 6 4 5 6 4 4 5 6 6 7 3 1 4 8 7 6 6 6 4 7 6 7 8 8 5 12 12 18 10 3 3 9 10 13 17
9 9 11 12 14 16 9 4 7 6 7 10 3 3 1 2 4 4 11 6 6 7 8 6 3 4 4 2 6 6 8 8 10 9 7 2 8 9 4 9 6 15 12 12
7 7 8 10 12 14 8 5 5 7 5 8 2 2 3 3 5 7 11 7 7 6 7 4 4 3 3 1 7 6 6 6 6 8 13 12 11 8 5 8 5 7 7 10
6 6 7 8 10 13 11 2 2 4 6 8 4 7 6 6 8 10 6 7 4 3 5 1 2 2 4 7 3 7 5 5 4 5 5 6 5 5 8 4 8 6 8 7
6 5 6 7 9 12 10 4 3 5 5 7 7 4 6 7 6 8 10 2 8 1 7 8 2 5 4 5 5 7 7 6 5 7 8 5 3 3 5 5 7 5 5 7
5 4 4 6 8 11 10 4 5 5 4 5 7 4 3 5 8 6 8 2 3 1 2 7 6 5 1 7 7 4 5 5 7 11 7 1 6 8 8 8 4 6 5 6
4 3 3 5 7 11 11 1 2 3 6 5 5 12 8 7 1 2 2 4 5 5 3 4 6 5 4 7 5 6 5 7 6 7 8 6 8 13 13 11 9 8 8 8
4 4 2 4 7 9 7 4 3 5 5 5 2 5 5 7 7 7 4 4 2 2 1 2 3 7 8 4 4 5 5 8 9 8 8 6 4 2 13 12 11 9 8 8
3 3 2 4 8 8 5 6 5 7 7 5 4 4 3 1 6 4 3 4 3 3 2 2 2 3 3 2 5 7 5 7 6 1 5 4 5 6 6 7 8 4 7 8
4 4 3 6 9 6 3 5 0 6 7 5 2 4 4 2 5 2 4 4 4 4 4 5 4 3 2 5 11 10 4 9 8 10 12 11 5 9 6 8 8 9 9 9
4 4 3 5 6 2 5 3 4 5 5 3 3 5 4 5 3 2 2 1 2 4 3 4 5 3 5 8 10 5 7 7 9 10 11 11 11 9 10 10 9 10 10 10
4 5 7 2 5 2 4 4 6 7 4 3 2 2 2 2 2 4 1 3 2 1 2 1 2 5 11 12 6 5 5 8 9 8 13 15 15 13 12 11 11 11 11 8
5 5 3 5 2 4 3 4 4 3 4 4 1 7 2 3 2 3 3 2 2 2 2 3 4 4 5 3 4 5 4 8 10 12 12 8 9 9 10 9 8 12 12 8
3 3 2 4 2 4 4 5 4 5 4 5 0 3 4 4 2 2 1 1 2 4 4 4 4 2 5 1 4 2 3 4 6 8 6 7 9 10 12 9 11 12 19 8
4 4 2 2 5 2 6 4 4 3 3 5 6 3 2 4 3 2 1 4 3 4 1 2 8 7 2 3 5 5 4 3 6 8 8 9 7 5 13 10 10 12 3 5
4 4 2 5 6 6 3 2 3 7 1 4 4 5 4 6 4 3 4 3 4 5 4 8 5 6 2 4 5 6 5 7 4 5 8 10 9 7 10 9 9 8 7 10
5 3 5 6 6 2 4 4 3 4 0 3 4 2 2 4 5 4 1 5 6 5 7 5 9 5 4 5 6 4 4 6 6 7 8 10 10 10 12 10 10 11 7 10
4 5 6 6 3 7 6 4 3 4 4 2 3 6 3 4 3 3 6 4 3 4 7 5 7 5 2 4 5 5 5 7 8 10 11 11 11 11 12 11 11 7 11 8
4 5 7 5 6 4 4 4 2 4 7 5 0 5 5 2 4 3 3 5 6 6 5 6 7 4 1 3 2 5 4 6 9 10 11 11 11 13 11 10 10 10 10 11
Wind_Direction
334 334 335 335 333 331 247 280 258 83 271 254 303 100 37 309 49 35 95 310 28 260 322 244 147 146 23 13 315 258 274 284 168 195 65 321 303 268 237 245 231 272 297 100
336 333 334 333 332 350 310 270 348 89 275 269 116 116 94 36 30 22 26 115 305 250 179 243 36 112 81 360 315 11 327 261 144 190 187 208 244 230 273 265 271 268 256 128
338 334 330 329 332 339 282 274 220 128 324 348 61 164 149 130 42 74 17 90 247 190 187 182 172 136 122 109 58 318 286 274 276 18 4 221 205 227 240 270 247 251 278 135
339 331 332 330 333 345 279 269 64 9 72 95 65 266 3 160 145 160 285 136 283 250 214 186 168 144 152 177 133 240 281 264 260 108 3 336 25 204 218 247 261 273 115 133
340 336 334 336 334 333 251 324 303 166 86 105 252 156 74 110 124 301 107 153 189 231 256 346 164 205 205 183 173 238 260 268 258 262 189 257 250 224 247 257 269 282 102 127
340 338 341 345 341 336 360 105 115 286 125 200 260 61 79 107 124 26 41 56 145 108 54 350 30 21 35 41 275 218 281 263 215 248 217 268 248 241 227 240 223 247 166 152
341 342 348 351 344 0 315 24 292 276 111 284 30 118 144 128 36 125 98 328 325 73 201 206 223 201 162 234 242 283 248 249 248 261 153 237 50 352 233 228 172 232 69 142
339 347 355 354 345 346 316 14 317 318 347 45 157 179 132 141 155 152 140 55 42 183 236 225 192 193 211 214 219 245 261 258 229 258 213 213 160 177 194 210 173 225 131 158
343 345 355 0 348 345 304 48 305 297 307 95 38 187 214 212 182 161 116 136 185 241 265 232 245 240 158 168 170 239 217 255 288 219 261 249 60 124 150 214 250 179 158 167
342 344 351 3 351 345 315 64 355 285 296 96 256 308 313 293 318 274 134 159 204 246 261 238 228 335 65 306 282 152 208 233 228 242 259 122 96 102 124 207 61 161 164 164
335 341 349 0 351 343 328 70 12 322 312 96 323 35 281 199 264 286 96 190 206 218 253 257 160 194 160 159 275 303 216 208 218 243 250 235 130 144 219 44 98 120 130 117
327 334 343 357 347 335 339 280 94 326 272 46 7 16 18 331 342 313 150 314 332 321 258 192 293 145 221 227 241 198 270 254 274 278 42 81 144 46 97 121 117 121 121 134
320 325 337 349 341 330 331 348 350 246 267 186 186 86 56 287 286 326 304 25 6 329 342 322 218 173 209 248 234 253 194 262 250 279 226 183 180 105 167 180 151 149 158 148
303 313 325 337 329 320 316 337 9 281 299 281 102 163 44 312 273 269 293 95 198 359 263 280 300 277 256 228 231 213 267 175 226 254 263 206 248 182 193 186 175 174 165 182
281 294 298 318 318 310 286 13 53 25 320 23 113 60 7 5 57 157 257 210 242 259 219 285 309 13 287 258 282 282 215 236 258 264 352 232 243 187 190 192 199 201 200 192
258 262 270 303 302 302 259 172 117 14 342 314 127 96 76 64 80 89 100 135 157 81 73 63 355 9 341 320 292 270 232 244 260 268 340 280 296 178 202 198 213 205 219 218
233 214 238 285 286 275 334 22 20 333 297 272 62 133 138 84 85 88 76 107 108 93 81 70 30 31 41 298 260 295 270 300 306 314 279 230 233 201 202 219 206 156 215 211
185 191 230 259 276 269 194 98 344 315 271 272 4 155 105 165 210 153 114 189 146 130 150 164 169 141 212 240 249 265 235 275 246 248 242 256 294 215 194 202 186 196 210 212
186 211 254 243 231 53 61 105 274 254 287 325 256 144 192 84 24 38 349 117 98 129 200 168 148 149 230 233 259 282 228 221 237 240 247 237 233 240 203 206 211 217 218 219
207 232 213 124 39 174 210 192 209 204 175 205 273 93 185 166 116 25 10 137 131 233 274 152 268 241 239 242 321 318 218 216 219 242 247 240 241 231 227 219 219 230 229 228
220 223 77 85 141 223 210 265 226 134 217 173 346 17 87 54 133 239 121 218 250 251 147 201 251 265 116 61 307 337 169 217 242 250 248 238 230 229 237 252 309 248 230 233
357 345 151 169 213 224 214 224 136 227 179 152 116 75 18 115 27 40 173 193 210 250 173 227 303 174 94 335 312 264 244 288 274 246 241 235 260 253 270 231 196 220 267 218
201 222 146 153 175 246 228 188 182 168 188 140 174 179 115 151 149 230 161 212 247 273 217 234 236 145 137 307 299 288 236 257 266 272 262 251 263 269 247 253 259 269 247 189
234 170 195 225 190 242 193 266 35 75 293 164 186 165 199 196 166 189 215 203 238 267 183 261 115 120 47 337 309 281 301 291 317 316 307 298 301 315 284 258 241 224 215 187
252 201 237 210 230 239 71 59 155 132 233 175 194 117 254 241 195 226 274 202 219 222 221 264 85 77 22 327 293 315 302 284 303 304 302 305 293 277 272 234 256 287 263 219
247 229 250 192 225 205 169 168 148 135 147 209 249 199 235 228 227 191 234 272 300 294 3 7 121 98 340 304 319 304 350 318 316 326 319 305 292 290 291 293 289 261 245 212
240 232 245 255 215 322 99 141 140 126 229 257 252 206 201 2 250 306 307 281 303 332 332 40 76 55 67 266 265 270 326 328 318 317 311 317 304 296 305 295 271 249 229 198